Location: Unspecified
(41.1637°N, 24.2901°E)
Time: 11:47:09
(UTC+01:00)

ISS - Visible Passes

Search period start: 28 November 2020 00:00
Search period end: 08 December 2020 00:00
Orbit: 418 x 420 km, 51.6° (Epoch: 28 November)

Date Brightness Start Highest point End Pass type
(mag) Time Alt. Az. Time Alt. Az. Time Alt. Az.
28 Nov -1.6 16:38:55 10° WNW 16:41:16 17° NNW 16:43:38 10° NNE visible
29 Nov -1.4 17:29:27 10° NNW 17:31:18 14° N 17:31:18 14° N visible
30 Nov -1.5 16:41:37 10° NW 16:43:30 14° N 16:45:23 10° NNE visible
01 Dec -1.6 17:31:18 10° NNW 17:32:59 16° N 17:32:59 16° N visible
02 Dec -1.6 16:43:45 10° NNW 16:45:43 14° N 16:47:24 11° NE visible
02 Dec -0.7 18:20:12 10° NW 18:20:22 11° NW 18:20:22 11° NW visible
03 Dec -2.1 17:32:46 10° NW 17:34:51 22° N 17:34:51 22° N visible
04 Dec -2.1 16:45:19 10° NNW 16:47:50 19° NNE 16:49:26 14° NE visible
04 Dec -1.0 18:21:41 10° NW 18:22:24 15° NW 18:22:24 15° NW visible
05 Dec -3.3 17:34:09 10° NW 17:37:06 46° N 17:37:06 46° N visible
06 Dec -2.9 16:46:40 10° NW 16:49:45 32° NNE 16:51:59 16° E visible
06 Dec -1.2 18:23:27 10° WNW 18:24:58 22° W 18:24:58 22° W visible
07 Dec -3.3 17:35:41 10° WNW 17:39:01 60° SW 17:40:07 36° SSE visible
